Saginaw, TX

9:20 PM CDT on July 23, 2016 (GMT -0500)
Fort Worth Meacham International

Weather History for KFTW - February, 2014

Change the Weather History Date:

Friday, February 21, 2014

  Actual Average Record
Temperature  
Mean Temperature 51 °F -  
Max Temperature 66 °F 58 °F 81 °F (2005)
Min Temperature 36 °F 39 °F 35 °F (2009)
Degree Days  
Heating Degree Days 14    
Growing Degree Days 1 (Base 50)    
Moisture  
Dew Point 25 °F    
Average Humidity 39    
Maximum Humidity 76    
Minimum Humidity 19    
Precipitation  
Precipitation 0.00 in - - ()
Sea Level Pressure  
Sea Level Pressure 30.07 in    
Wind  
Wind Speed 8 mph (South)    
Max Wind Speed 18 mph    
Max Gust Speed 22 mph    
Visibility 10 miles    
Events      
Averages and records for this station are not official NWS values.
T = Trace of Precipitation, MM = Missing Value Source: NWS Daily Summary

Daily Weather History Graph

Daily Weather History Graph

Search for Another Location

Airport or City:

Trip Planner

Search our weather history database for the weather conditions in past years. The results will help you decide how hot, cold, wet, or windy it might be!

Date:

Astronomy

Feb. 21, 2014 Rise Set
Actual Time 7:06 AM CST 6:20 PM CST
Civil Twilight 6:41 AM CST 6:45 PM CST
Nautical Twilight 6:12 AM CST 7:13 PM CST
Astronomical Twilight 5:44 AM CST 7:42 PM CST
Moon No Moon Rise 10:53 AM CST (2/21)
Length of Visible Light 12h 03m
Length of Day
11h 13m
Waning Gibbous, 60% of the Moon is Illuminated
Feb 21
Waning Gibbous
Feb 22
Last Quarter
Mar 1
New
Mar 8
First Quarter
Mar 16
Full

Hourly Weather History & Observations

Time (CST) Temp. Windchill Dew Point Humidity Pressure Visibility Wind Dir Wind Speed Gust Speed Precip Events Conditions
12:53 AM 44.1 °F 40.1 °F 25.0 °F 47% 30.11 in 10.0 mi North 6.9 mph - N/A   Clear
1:53 AM 44.1 °F 41.5 °F 24.1 °F 45% 30.11 in 10.0 mi NNW 4.6 mph - N/A   Clear
2:53 AM 41.0 °F 39.0 °F 21.9 °F 47% 30.10 in 10.0 mi NW 3.5 mph - N/A   Clear
3:53 AM 39.0 °F - 23.0 °F 53% 30.09 in 10.0 mi Calm Calm - N/A   Clear
4:53 AM 37.0 °F 34.5 °F 25.0 °F 62% 30.11 in 10.0 mi SSW 3.5 mph - N/A   Clear
5:53 AM 37.0 °F 34.5 °F 30.0 °F 76% 30.14 in 10.0 mi WSW 3.5 mph - N/A   Clear
6:53 AM 36.0 °F - 28.0 °F 73% 30.14 in 10.0 mi Calm Calm - N/A   Clear
7:53 AM 37.9 °F - 30.0 °F 73% 30.16 in 10.0 mi Calm Calm - N/A   Clear
8:53 AM 46.0 °F 43.9 °F 28.0 °F 50% 30.18 in 10.0 mi South 4.6 mph - N/A   Clear
9:53 AM 54.0 °F - 23.0 °F 30% 30.15 in 10.0 mi SSE 9.2 mph - N/A   Clear
10:53 AM 59.0 °F - 21.0 °F 23% 30.14 in 10.0 mi SSE 13.8 mph - N/A   Clear
11:53 AM 61.0 °F - 19.9 °F 21% 30.12 in 10.0 mi SSW 15.0 mph 20.7 mph N/A   Clear
12:53 PM 63.0 °F - 21.0 °F 20% 30.08 in 10.0 mi SSW 15.0 mph 21.9 mph N/A   Clear
1:53 PM 64.9 °F - 21.0 °F 19% 30.04 in 10.0 mi South 17.3 mph - N/A   Clear
2:53 PM 64.9 °F - 23.0 °F 20% 30.01 in 10.0 mi South 18.4 mph - N/A   Clear
3:53 PM 66.9 °F - 23.0 °F 19% 29.99 in 10.0 mi South 13.8 mph - N/A   Clear
4:53 PM 64.9 °F - 24.1 °F 21% 29.99 in 10.0 mi South 15.0 mph 21.9 mph N/A   Clear
5:53 PM 63.0 °F - 24.1 °F 23% 29.98 in 10.0 mi South 15.0 mph - N/A   Clear
6:53 PM 57.9 °F - 25.0 °F 28% 29.99 in 10.0 mi South 10.4 mph - N/A   Clear
7:53 PM 57.0 °F - 27.0 °F 32% 29.99 in 10.0 mi SSE 12.7 mph - N/A   Clear
8:53 PM 55.0 °F - 28.0 °F 35% 30.00 in 10.0 mi SSE 9.2 mph - N/A   Clear
9:53 PM 54.0 °F - 28.9 °F 38% 30.01 in 10.0 mi SSE 9.2 mph - N/A   Clear
10:53 PM 55.0 °F - 30.0 °F 38% 30.00 in 10.0 mi South 12.7 mph - N/A   Clear
11:53 PM 55.0 °F - 30.9 °F 40% 29.99 in 10.0 mi South 10.4 mph - N/A   Clear